Location: Laura�t
(43.9341°N, 0.2497°E)
Time: 00:29:00
(UTC+00:00)

H-2A R/B - Pass Details

Date: 03 March 2021
Orbit: 732 x 838 km, 98.2° (Epoch: 17 April)

Event Time Altitude Azimuth Distance (km) Brightness Sun altitude
Rises 19:40:19 0° 198° (SSW) 3,362 5.4 -20.5°
Reaches altitude 10° 19:43:02 10° 211° (SSW) 2,440 4.8 -21.0°
Maximum altitude 19:47:31 26° 267° (W) 1,596 4.3 -21.8°
Drops below altitude 10° 19:52:02 10° 323° (NW) 2,457 5.3 -22.6°
Sets 19:54:48 0° 336° (NNW) 3,390 5.9 -23.1°
